Regional Weather Roundup
Issued by NWS

Home | Current Version | Previous Version | Text Only | Print | Product List | Glossary On
Versions: 1 2 3 4 5 6 7 8 9 10 11 12 13 14 15 16 17 18 19 20 21 22 23 24 25 26 27 28 29 30 31 32 33 34 35 36 37 38 39 40 41 42 43 44 45 46 47 48 49 50
000
ASUS42 KFFC 240010
RWRGA
WEATHER ROUNDUP FOR GEORGIA
NATIONAL WEATHER SERVICE PEACHTREE CITY GA
700 PM EST TUE JAN 23 2018

NOTE: "FAIR" INDICATES FEW OR NO CLOUDS BELOW 12,000 FEET WITH NO
SIGNIFICANT WEATHER AND/OR OBSTRUCTIONS TO VISIBILITY.

* = USE WITH CAUTION. THE STATIONS MARKED WITH AN ASTERISK MAY NOT
REPORT WEATHER SUCH AS PRECIPITATION, FOG, OR THUNDER AND ARE NOT
QUALITY CONTROLLED BY NWS.

THE REMARK "TC" DENOTES TEMPERATURE READING IN DEGREES CELSIUS.

GAZ001>058-240100-
NORTH GEORGIA

CITY           SKY/WX    TMP DP  RH WIND       PRES   REMARKS
ATLANTA        FAIR      48  32  53 W9        30.07R
6HR MIN TEMP:  48; 6HR MAX TEMP:  57;

ATHENS         FAIR      49  31  49 W9        30.03R
6HR MIN TEMP:  49; 6HR MAX TEMP:  59;

CHAMBLEE       FAIR      49  30  48 W8        30.06R
6HR MIN TEMP:  48; 6HR MAX TEMP:  55;

PEACHTREE CITY FAIR      48  33  56 NW7       30.09R
6HR MIN TEMP:  47; 6HR MAX TEMP:  58;

ROME           FAIR      48  32  53 NW10      30.11R
6HR MIN TEMP:  48; 6HR MAX TEMP:  56;

WEST ATLANTA   FAIR      50  31  48 W9        30.07R
6HR MIN TEMP:  50; 6HR MAX TEMP:  56;

GAINESVILLE    FAIR      47  30  51 W12       30.04R
6HR MIN TEMP:  47; 6HR MAX TEMP:  53;

CARTERSVILLE   FAIR      47  32  56 CALM      30.10R
6HR MIN TEMP:  47; 6HR MAX TEMP:  54;



CITY           SKY/WX    TMP DP  RH WIND       PRES   REMARKS
DALTON*        FAIR      45  32  61 NW12G17   30.12R
LAWRENCEVILLE* FAIR      49  30  48 VRB6      30.06R
MARIETTA       PTCLDY    47  30  52 W7        30.07R
KENNESAW*      FAIR      49  30  48 W9        30.08R
CANTON*        FAIR      48  32  53 NW8       30.07R
BLAIRSVILLE*   MOCLDY    44  28  54 NW12      30.05R
$$

GAZ059>098-102>109-240100-
CENTRAL GEORGIA

CITY           SKY/WX    TMP DP  RH WIND       PRES   REMARKS
AUGUSTA-BUSH   FAIR      56  32  40 W9        30.00R
6HR MIN TEMP:  56; 6HR MAX TEMP:  68;

AUGUSTA-DANIEL FAIR      57  32  38 W7        30.01R
6HR MIN TEMP:  57; 6HR MAX TEMP:  66;

COLUMBUS       FAIR      54  31  41 NW9       30.10R
6HR MIN TEMP:  54; 6HR MAX TEMP:  61;

MACON          FAIR      54  30  40 W9        30.05R
6HR MIN TEMP:  54; 6HR MAX TEMP:  65;

ROBINS AFB     CLEAR     57  30  35 W7        30.06R


CITY           SKY/WX    TMP DP  RH WIND       PRES   REMARKS
LAGRANGE*      FAIR      47  34  59 W6        30.11R
SYLVANIA*      FAIR      57  35  43 W3        30.02R
MILLEDGEVILLE* FAIR      52  34  50 W5        30.04R
$$

GAZ099>101-110>166-240100-
SOUTH GEORGIA

CITY           SKY/WX    TMP DP  RH WIND       PRES   REMARKS
SAVANNAH       MOCLDY    62  29  28 W10       30.01R
6HR MIN TEMP:  62; 6HR MAX TEMP:  77;

VALDOSTA       FAIR      51  31  46 CALM      30.06R
6HR MIN TEMP:  51; 6HR MAX TEMP:  72;

ALMA           FAIR      57  33  40 W3        30.04R
6HR MIN TEMP:  57; 6HR MAX TEMP:  72;

ST SIMONS      FAIR      64  36  35 W6        30.01R
6HR MIN TEMP:  64; 6HR MAX TEMP:  76;

FT STEWART     FAIR      61  28  28 W8        30.00R
ALBANY         FAIR      58  31  35 W6        30.10R
HUNTER AFB     FAIR      58  34  39 W10       29.98R
MOODY AFB      FAIR      59  30  33 W6        30.05R
BRUNSWICK      FAIR      63  30  29 W8        30.02R


CITY           SKY/WX    TMP DP  RH WIND       PRES   REMARKS
BAINBRIDGE*    FAIR      55  37  50 W5        30.09R
MOULTRIE*      FAIR      55  34  44 CALM      30.08R
VIDALIA*       FAIR      59  32  36 W3        30.04R
WAYCROSS*      FAIR      59  26  27 W5        30.04R
DOUGLAS*       FAIR      54  32  43 CALM      30.06R
$$




USA.gov is the U.S. government's official web portal to all federal, state and local government web resources and services.